Location: Unspecified
(0.0000°N, 0.0000°E)
Time: 01:26:48
(UTC+00:00)

Courier 1B - Pass Details

Date: 19 November 2019
Orbit: 963 x 1209 km, 28.3° (Epoch: 11 December)

Event Time Altitude Azimuth Distance (km) Brightness Sun altitude
Rises 00:19:15 0° 226° (SW) 4,108 - -68.9°
Reaches altitude 10° 00:22:23 10° 218° (SW) 3,133 - -68.6°
Maximum altitude 00:29:31 38° 152° (SSE) 1,712 - -67.8°
Drops below altitude 10° 00:36:21 10° 86° (E) 3,012 - -67.0°
Sets 00:39:18 0° 78° (ENE) 3,933 - -66.6°
